15min,AgWx,beryljct,423,05APR2020:00:00:00,49.8,12.88,50.0,49.5,49.8,50.5,49.4,41,42,40,0.504,27.2,27.3,27.0,10.04,9.7,197,7.2,14.5,0.00044,0.00055,45.9,45.2,22,0,.,.,11.19,0.00,0.00
15min,AgWx,beryljct,423,05APR2020:00:15:00,49.4,12.88,47.9,48.4,49.1,49.7,48.4,43,44,41,0.507,27.3,27.5,27.2,6.708,9.0,190,9.6,13.2,0.00040,0.00050,45.8,45.2,22,0,.,.,11.19,0.00,0.00
15min,AgWx,beryljct,423,05APR2020:00:30:00,48.7,12.89,47.2,47.5,48.0,48.4,47.4,45,46,44,0.511,27.6,27.8,27.4,6.664,7.9,185,7.9,11.0,0.00032,0.00042,45.7,45.2,23,0,.,.,11.19,0.00,0.00
15min,AgWx,beryljct,423,05APR2020:00:45:00,47.9,12.88,47.8,47.7,47.5,47.9,47.2,46,47,46,0.522,27.9,28.2,27.6,7.804,8.6,181,7.3,12.3,0.00033,0.00042,45.6,45.2,22,0,.,.,11.19,0.01,0.00
15min,AgWx,beryljct,423,05APR2020:01:00:00,47.6,12.85,48.3,47.9,47.6,48.0,47.4,47,47,46,0.528,28.3,28.5,28.1,8.66,8.4,181,8.3,12.8,0.00032,0.00041,45.5,45.2,22,0,.,.,11.19,0.00,0.00
15min,AgWx,beryljct,423,05APR2020:01:15:00,47.5,12.87,48.6,48.3,47.9,48.4,47.5,47,47,46,0.535,28.6,28.8,28.4,9.73,8.2,185,9.4,14.7,0.00032,0.00041,45.4,45.1,22,0,.,.,11.19,0.00,0.00
15min,AgWx,beryljct,423,05APR2020:01:30:00,47.8,12.86,48.3,48.4,48.4,48.7,48.2,46,47,46,0.536,28.8,28.9,28.7,7.607,8.8,183,9.6,12.5,0.00035,0.00044,45.4,45.1,22,0,.,.,11.19,0.00,0.00
15min,AgWx,beryljct,423,05APR2020:01:45:00,47.9,12.86,47.2,47.7,48.1,48.4,47.7,47,48,46,0.540,28.9,29.1,28.7,3.727,7.0,182,9.0,11.0,0.00027,0.00036,45.3,45.1,22,0,.,.,11.19,0.00,0.00
15min,AgWx,beryljct,423,05APR2020:02:00:00,47.8,12.83,47.6,47.6,47.7,47.8,47.5,48,48,48,0.542,29.0,29.1,28.9,7.015,7.2,182,8.2,9.4,0.00027,0.00036,45.2,45.1,22,0,.,.,11.19,0.00,0.00
15min,AgWx,beryljct,423,05APR2020:02:15:00,47.6,12.81,47.3,46.9,47.2,47.6,46.8,49,50,48,0.547,29.1,29.3,29.0,8.88,7.0,177,10,10.2,0.00025,0.00033,45.1,45.1,22,0,.,.,11.19,0.00,0.00
15min,AgWx,beryljct,423,05APR2020:02:30:00,47.4,12.81,47.8,47.6,47.2,47.6,46.9,49,50,49,0.550,29.3,29.4,29.1,11.75,10.2,180,8.4,15.3,0.00035,0.00043,45.0,45.1,22,0,.,.,11.19,0.00,0.00
15min,AgWx,beryljct,423,05APR2020:02:45:00,47.6,12.8,47.6,47.6,47.7,47.9,47.5,49,50,48,0.555,29.4,29.7,29.3,8.11,10.1,174,7.5,14.7,0.00036,0.00044,44.9,45.1,22,0,.,.,11.19,0.00,0.00
15min,AgWx,beryljct,423,05APR2020:03:00:00,47.7,12.8,48.2,48.1,47.9,48.3,47.5,49,50,48,0.559,29.7,29.9,29.5,10.83,11.2,174,9.0,17.0,0.00038,0.00047,44.9,45.0,22,0,.,.,11.19,0.00,0.00
15min,AgWx,beryljct,423,05APR2020:03:15:00,47.9,12.8,47.5,47.3,47.8,48.2,47.2,50,51,49,0.564,29.9,30.1,29.8,5.787,9.6,172,10,15.5,0.00034,0.00042,44.8,45.0,22,0,.,.,11.19,0.00,0.00
15min,AgWx,beryljct,423,05APR2020:03:30:00,47.7,12.81,46.8,47.0,47.2,47.4,46.9,51,51,50,0.560,29.9,30.1,29.7,4.845,5.2,179,17,9.2,0.00016,0.00023,44.8,45.0,22,0,.,.,11.19,0.00,0.00
15min,AgWx,beryljct,423,05APR2020:03:45:00,47.3,12.78,46.3,46.5,46.8,47.1,46.4,52,53,51,0.560,29.9,30.2,29.8,3.113,2.9,206,21,6.2,0.00000,0.00003,44.7,45.0,23,0,.,.,11.19,0.00,0.00
15min,AgWx,beryljct,423,05APR2020:04:00:00,46.6,12.78,46.9,46.2,46.2,46.5,46.0,53,53,52,0.560,29.9,30.1,29.8,2.389,2.4,183,16,4.2,-0.00005,-0.00003,44.7,44.9,22,0,.,.,11.19,0.00,0.00
15min,AgWx,beryljct,423,05APR2020:04:15:00,45.8,12.78,45.7,45.7,45.8,46.4,45.4,54,55,52,0.564,30.0,30.2,29.8,4.012,3.0,168,14,4.7,0.00000,0.00003,44.6,44.9,22,0,.,.,11.19,0.00,0.00
15min,AgWx,beryljct,423,05APR2020:04:30:00,45.0,12.77,44.0,44.7,45.2,46.0,44.4,55,57,54,0.562,30.0,30.2,29.7,0.219,2.8,167,13,7.2,-0.00001,0.00001,44.5,44.9,22,0,.,.,11.19,0.00,0.00
15min,AgWx,beryljct,423,05APR2020:04:45:00,44.1,12.77,44.0,44.4,44.4,44.9,44.1,56,57,55,0.562,29.9,30.1,29.5,1.271,1.2,176,27,4.8,-0.00017,-0.00023,44.5,44.9,22,0,.,.,11.20,0.00,0.00
15min,AgWx,beryljct,423,05APR2020:05:00:00,43.4,12.76,44.7,44.0,44.0,44.6,43.6,57,59,56,0.571,29.9,30.4,29.3,7.958,3.0,192,24,8.0,-0.00002,0.00001,44.4,44.8,22,0,.,.,11.20,0.00,0.00
15min,AgWx,beryljct,423,05APR2020:05:15:00,43.3,12.78,45.1,44.8,44.5,44.8,44.0,57,59,57,0.574,30.4,30.6,30.3,6.116,6.6,176,8.9,9.3,0.00016,0.00022,44.3,44.8,22,0,.,.,11.20,0.00,0.00
15min,AgWx,beryljct,423,05APR2020:05:30:00,43.4,12.78,44.1,44.1,44.4,44.8,44.0,58,59,57,0.572,30.4,30.5,30.2,3.727,5.4,180,7.9,8.2,0.00045,0.00079,44.2,44.8,22,0,.,.,11.20,0.00,0.00
15min,AgWx,beryljct,423,05APR2020:05:45:00,43.3,12.75,43.7,43.5,43.5,44.1,43.0,60,61,58,0.570,30.4,30.6,30.2,2.236,3.6,191,11,6.2,0.00030,0.00052,44.1,44.8,22,0,.,.,11.19,0.00,0.00
15min,AgWx,beryljct,423,05APR2020:06:00:00,43.0,12.76,44.5,43.5,43.6,44.0,43.4,59,60,59,0.578,30.4,30.7,30.2,6.27,3.1,164,15,6.7,0.00026,0.00046,44.0,44.7,22,0,.,.,11.20,0.00,0.00
15min,AgWx,beryljct,423,05APR2020:06:15:00,43.0,12.76,44.4,44.3,44.1,44.5,43.6,59,60,59,0.582,30.9,31.1,30.7,4.976,6.4,168,9.6,9.5,0.00050,0.00087,44.0,44.7,22,3,.,.,11.20,0.00,0.00
15min,AgWx,beryljct,423,05APR2020:06:30:00,43.0,12.76,44.1,43.7,44.0,44.3,43.7,59,60,59,0.579,30.7,31.0,30.6,4.582,5.1,192,16,7.5,0.00048,0.00079,43.9,44.7,22,18,.,.,11.20,0.00,0.00
15min,AgWx,beryljct,423,05APR2020:06:45:00,43.3,12.8,45.1,45.2,44.5,45.3,43.7,59,60,57,0.586,31.0,31.2,30.7,1.798,4.3,200,12,7.4,0.00065,0.00094,43.8,44.7,22,65,.,.,11.20,0.00,0.00
15min,AgWx,beryljct,423,05APR2020:07:00:00,44.0,12.8,46.0,45.9,45.6,46.1,45.1,57,57,56,0.593,31.1,31.4,30.9,6.577,6.2,171,10,10.2,0.00091,0.00132,43.7,44.7,22,104,.,.,11.20,0.00,0.00
15min,AgWx,beryljct,423,05APR2020:07:15:00,45.2,12.82,47.6,47.3,46.6,47.3,45.8,55,57,53,0.591,31.3,31.5,31.1,14.86,7.3,175,11,15.0,0.00112,0.00162,43.6,44.6,22,135,.,.,11.20,0.00,0.00
15min,AgWx,beryljct,423,05APR2020:07:30:00,46.4,12.9,48.0,47.8,47.5,47.8,47.2,53,54,53,0.606,31.4,31.9,31.1,10,9.8,176,10,14.9,0.00142,0.00207,43.6,44.6,22,172,.,.,11.19,0.00,0.00
15min,AgWx,beryljct,423,05APR2020:07:45:00,47.8,13.04,49.3,49.1,48.4,49.1,47.8,53,54,52,0.617,31.9,32.3,31.7,9.91,11.9,173,10,17.2,0.00173,0.00250,43.5,44.6,22,232,.,.,11.20,0.00,0.00
15min,AgWx,beryljct,423,05APR2020:08:00:00,49.2,13.29,50.4,49.8,49.4,49.8,49.0,51,52,50,0.614,32.0,32.3,31.7,15.32,15.2,177,11,20.6,0.00215,0.00310,43.4,44.6,22,312,.,.,11.19,0.00,0.00
15min,AgWx,beryljct,423,05APR2020:08:15:00,50.7,13.6,50.4,50.4,50.3,50.7,49.9,50,51,49,0.607,32.2,32.6,31.8,20.32,16.8,184,11,24.4,0.00244,0.00349,43.4,44.5,22,366,.,.,11.19,0.00,0.00
15min,AgWx,beryljct,423,05APR2020:08:30:00,51.8,14.42,51.3,51.2,50.8,51.2,50.3,49,50,48,0.631,32.3,32.8,31.8,19.07,18.4,185,9.7,22.8,0.00267,0.00381,43.3,44.5,22,413,.,.,11.19,0.00,0.00
15min,AgWx,beryljct,423,05APR2020:08:45:00,52.8,14.41,51.2,51.5,51.3,51.9,50.9,48,49,48,0.635,32.5,33.2,32.2,24.33,19.7,181,8.3,24.6,0.00293,0.00414,43.4,44.4,22,474,.,.,11.19,0.00,0.00
15min,AgWx,beryljct,423,05APR2020:09:00:00,53.6,14.39,52.4,52.5,51.8,52.6,51.3,48,49,47,0.635,32.9,33.5,32.4,18.48,19.8,177,9.6,24.6,0.00312,0.00437,43.4,44.4,22,518,.,.,11.19,0.00,0.00
15min,AgWx,beryljct,423,05APR2020:09:15:00,54.6,14.4,53.3,52.6,52.5,52.9,52.2,47,48,46,0.637,32.9,33.5,32.5,17.8,19.8,181,10,25.4,0.00330,0.00460,43.4,44.4,22,547,.,.,11.19,0.00,0.00
15min,AgWx,beryljct,423,05APR2020:09:30:00,55.5,14.33,54.6,54.4,53.7,54.5,52.7,46,47,45,0.647,33.2,34.2,32.5,20.89,19.1,181,9.1,26.9,0.00361,0.00496,43.5,44.4,22,604,.,.,11.19,0.00,0.00
15min,AgWx,beryljct,423,05APR2020:09:45:00,56.2,14.33,55.7,54.5,54.0,54.7,53.4,45,46,43,0.642,33.0,34.0,32.4,14.4,19.7,184,12,27.2,0.00375,0.00517,43.6,44.4,22,627,.,.,11.18,0.00,0.00
15min,AgWx,beryljct,423,05APR2020:10:00:00,57.0,14.33,55.3,54.9,54.8,55.3,54.2,43,45,42,0.620,32.9,34.0,32.1,26.9,20.5,194,10,29.4,0.00404,0.00555,43.7,44.3,22,682,.,.,11.18,0.00,0.00
15min,AgWx,beryljct,423,05APR2020:10:15:00,57.6,14.33,55.5,55.2,55.0,55.8,54.5,42,43,41,0.631,32.5,33.4,31.7,20.3,22.1,188,9.9,31.9,0.00430,0.00592,43.8,44.3,22,743,.,.,11.18,0.00,0.00
15min,AgWx,beryljct,423,05APR2020:10:30:00,58.2,14.27,56.0,56.4,55.6,56.6,54.9,42,44,41,0.641,33.0,34.4,32.1,25.67,21.0,189,13,32.4,0.00453,0.00613,44.0,44.3,22,798,.,.,11.18,0.00,0.00
15min,AgWx,beryljct,423,05APR2020:10:45:00,59.0,14.37,55.0,56.0,56.2,57.1,55.6,42,43,41,0.645,33.4,34.3,32.8,26.07,21.9,176,11,29.4,0.00487,0.00655,44.2,44.3,22,881,.,.,11.19,0.00,0.00
15min,AgWx,beryljct,423,05APR2020:11:00:00,59.3,13.87,56.7,56.5,56.0,56.8,55.4,42,43,41,0.640,33.2,33.9,32.6,16.92,21.8,182,11,28.2,0.00474,0.00640,44.3,44.3,22,842,.,.,11.18,0.00,0.00
15min,AgWx,beryljct,423,05APR2020:11:15:00,59.6,13.84,57.2,56.5,56.8,57.3,56.0,40,41,38,0.608,33.0,33.9,31.5,22.95,22.9,183,11,32.7,0.00492,0.00669,44.6,44.3,22,858,.,.,11.18,0.00,0.00
15min,AgWx,beryljct,423,05APR2020:11:30:00,59.9,13.84,57.8,57.6,57.4,58.6,56.6,38,40,37,0.598,32.3,33.5,31.5,25.17,22.6,193,9.7,28.7,0.00515,0.00700,44.8,44.3,22,884,.,.,11.18,0.00,0.00
15min,AgWx,beryljct,423,05APR2020:11:45:00,60.3,13.98,57.0,57.4,57.7,58.8,56.9,35,37,34,0.550,30.5,31.9,29.2,28.78,24.6,191,10,34.2,0.00532,0.00735,45.0,44.2,22,895,.,.,11.18,0.00,0.00
15min,AgWx,beryljct,423,05APR2020:12:00:00,60.6,13.9,58.3,57.4,57.6,58.1,57.1,35,36,34,0.579,30.1,31.0,29.3,20.37,24.6,187,10,30.1,0.00539,0.00743,45.3,44.3,22,915,.,.,11.18,0.00,0.00
15min,AgWx,beryljct,423,05APR2020:12:15:00,60.8,13.83,58.1,58.4,57.9,58.4,57.1,37,39,35,0.609,31.6,33.3,30.5,21.05,22.4,192,16,28.8,0.00535,0.00727,45.5,44.3,22,918,.,.,11.17,0.00,0.00
15min,AgWx,beryljct,423,05APR2020:12:30:00,61.1,13.95,58.1,58.3,58.4,59.3,57.6,36,37,35,0.602,31.7,33.0,30.7,21.83,20.8,188,11,28.3,0.00544,0.00732,45.7,44.3,22,924,.,.,11.17,0.00,0.00
15min,AgWx,beryljct,423,05APR2020:12:45:00,61.3,13.84,59.2,58.7,58.7,59.5,57.7,35,36,33,0.593,31.1,32.7,29.6,19.38,19.8,202,11,27.4,0.00526,0.00714,46.0,44.3,22,852,.,.,11.17,0.00,0.00
15min,AgWx,beryljct,423,05APR2020:13:00:00,61.5,13.86,58.4,58.3,58.4,59.4,57.8,36,38,33,0.587,31.5,33.0,29.2,18.26,20.3,179,12,29.0,0.00528,0.00715,46.2,44.3,22,878,.,.,11.17,0.00,0.00
15min,AgWx,beryljct,423,05APR2020:13:15:00,61.4,13.85,56.7,57.3,57.7,58.6,56.9,36,39,34,0.557,30.9,32.9,29.5,19.05,20.2,179,10,26.9,0.00442,0.00620,46.5,44.4,22,630,.,.,11.17,0.00,0.00
15min,AgWx,beryljct,423,05APR2020:13:30:00,61.1,13.85,57.2,57.1,57.4,58.4,56.6,36,38,35,0.584,30.8,32.0,29.6,23.08,19.4,178,12,26.6,0.00434,0.00608,46.8,44.4,22,641,.,.,11.17,0.00,0.00
15min,AgWx,beryljct,423,05APR2020:13:45:00,61.0,13.85,57.6,57.6,57.5,58.4,56.7,36,38,35,0.578,30.8,32.8,29.7,17.63,19.6,174,12,27.4,0.00452,0.00628,47.0,44.4,22,686,.,.,11.18,0.00,0.00
15min,AgWx,beryljct,423,05APR2020:14:00:00,61.2,13.88,60.1,58.7,58.0,58.8,57.0,35,37,34,0.618,30.7,32.3,29.8,13.46,18.0,187,14,24.3,0.00459,0.00632,47.3,44.5,22,713,.,.,11.17,0.00,0.00
15min,AgWx,beryljct,423,05APR2020:14:15:00,61.8,13.81,58.4,58.7,58.6,59.3,57.5,34,37,32,0.590,30.3,32.6,29.1,17.71,20.1,191,10,26.5,0.00506,0.00695,47.5,44.5,22,798,.,.,11.17,0.00,0.00
15min,AgWx,beryljct,423,05APR2020:14:30:00,62.8,13.78,60.5,60.0,59.6,60.4,58.7,33,36,31,0.548,30.7,32.8,29.4,21,18.5,184,14,26.4,0.00549,0.00739,47.7,44.6,22,884,.,.,11.17,0.00,0.00
15min,AgWx,beryljct,423,05APR2020:14:45:00,63.4,13.78,58.7,60.1,59.7,60.5,59.1,31,32,30,0.559,29.0,29.9,27.8,22.21,19.5,190,9.5,25.6,0.00541,0.00742,47.9,44.6,22,840,.,.,11.17,0.00,0.00
15min,AgWx,beryljct,423,05APR2020:15:00:00,63.9,13.74,58.4,59.3,59.9,60.8,59.2,32,34,31,0.562,30.1,31.6,28.9,14.67,18.7,185,13,25.6,0.00522,0.00716,48.1,44.7,22,798,.,.,11.17,0.00,0.00
15min,AgWx,beryljct,423,05APR2020:15:15:00,64.3,13.79,59.6,59.8,59.7,60.7,58.9,33,34,32,0.576,30.8,32.5,29.2,16.57,17.2,193,12,23.9,0.00487,0.00667,48.3,44.7,22,742,.,.,11.17,0.00,0.00
15min,AgWx,beryljct,423,05APR2020:15:30:00,64.3,13.73,57.8,59.1,59.7,60.9,59.0,33,34,32,0.564,30.4,32.1,29.4,17.98,17.8,187,12,23.9,0.00478,0.00662,48.5,44.8,22,709,.,.,11.17,0.00,0.00
15min,AgWx,beryljct,423,05APR2020:15:45:00,64.1,13.75,58.7,59.0,59.2,60.1,58.7,33,35,32,0.570,30.3,31.4,29.3,19.75,18.7,181,11,25.6,0.00448,0.00632,48.7,44.9,22,646,.,.,11.17,0.00,0.00
15min,AgWx,beryljct,423,05APR2020:16:00:00,63.9,13.77,58.6,59.5,59.6,60.2,58.6,33,35,31,0.545,30.5,31.7,29.0,17.27,17.6,182,11,24.9,0.00428,0.00607,48.9,44.9,22,598,.,.,11.17,0.00,0.00
15min,AgWx,beryljct,423,05APR2020:16:15:00,63.3,13.78,58.0,58.5,58.6,59.4,57.7,35,37,32,0.597,30.8,32.1,29.3,16.79,18.0,185,9.8,22.1,0.00354,0.00525,49.1,45.0,22,448,.,.,11.18,0.01,0.00
15min,AgWx,beryljct,423,05APR2020:16:30:00,62.8,13.84,59.6,59.0,58.5,59.1,57.9,36,38,35,0.620,31.8,32.6,30.7,18.09,18.1,184,12,25.0,0.00372,0.00540,49.2,45.1,22,500,.,.,11.17,0.00,0.00
15min,AgWx,beryljct,423,05APR2020:16:45:00,62.9,13.77,60.3,59.6,59.2,59.8,58.6,36,37,34,0.611,32.0,32.9,30.8,14.91,16.4,190,11,25.5,0.00378,0.00541,49.3,45.1,22,519,.,.,11.17,0.00,0.00
15min,AgWx,beryljct,423,05APR2020:17:00:00,62.9,13.82,57.5,58.3,58.8,59.7,58.1,35,36,34,0.587,31.4,32.4,30.3,22.56,17.6,184,12,23.2,0.00352,0.00519,49.5,45.2,22,445,.,.,11.17,0.00,0.00
15min,AgWx,beryljct,423,05APR2020:17:15:00,62.6,13.83,58.1,58.3,58.4,58.9,57.9,35,36,33,0.550,30.6,31.7,29.4,16.75,17.7,182,10,23.4,0.00335,0.00502,49.6,45.3,22,410,.,.,11.18,0.01,0.00
15min,AgWx,beryljct,423,05APR2020:17:30:00,62.1,13.84,57.2,57.5,57.7,58.4,57.3,35,38,32,0.546,30.4,31.9,28.5,22.65,18.4,173,8.4,25.9,0.00306,0.00471,49.7,45.4,22,345,.,.,11.18,0.00,0.00
15min,AgWx,beryljct,423,05APR2020:17:45:00,61.4,13.83,56.7,57.1,57.6,58.0,57.1,34,35,33,0.549,29.3,30.1,28.4,19.55,16.9,178,9.0,23.2,0.00275,0.00434,49.7,45.5,22,277,.,.,11.17,0.00,0.00
15min,AgWx,beryljct,423,05APR2020:18:00:00,60.6,13.84,57.1,57.1,57.1,57.4,56.9,35,36,34,0.560,29.9,30.4,29.2,16.35,15.8,185,9.3,20.2,0.00232,0.00378,49.7,45.5,22,212,.,.,11.17,0.00,0.00
15min,AgWx,beryljct,423,05APR2020:18:15:00,59.7,13.25,55.9,55.9,56.5,57.2,55.9,36,39,33,0.590,29.7,31.3,28.1,14.6,14.4,199,11,21.4,0.00093,0.00109,49.8,45.6,22,152,.,.,11.18,0.00,0.00
15min,AgWx,beryljct,423,05APR2020:18:30:00,58.3,13.17,54.6,54.5,55.1,55.9,54.5,40,41,38,0.585,31.0,31.2,30.6,12.87,10.1,203,11,16.6,0.00061,0.00076,49.8,45.6,22,47,.,.,11.18,0.00,0.00
15min,AgWx,beryljct,423,05APR2020:18:45:00,56.7,13.12,53.6,53.4,53.9,54.6,53.4,42,42,40,0.591,31.1,31.3,31.0,14.12,11.8,211,7.3,16.2,0.00058,0.00071,49.8,45.7,22,20,.,.,11.18,0.00,0.00
15min,AgWx,beryljct,423,05APR2020:19:00:00,55.4,13.07,53.1,52.7,53.2,53.6,52.7,43,44,42,0.595,31.2,31.4,31.1,15.78,13.3,212,9.2,20.6,0.00058,0.00070,49.7,45.8,22,8,.,.,11.19,0.01,0.00
15min,AgWx,beryljct,423,05APR2020:19:15:00,54.4,13.05,51.8,52.2,52.5,52.9,52.2,44,45,44,0.593,31.3,31.5,31.2,10.08,12.6,214,7.4,18.6,0.00053,0.00064,49.6,45.8,22,2,.,.,11.18,0.00,0.00
15min,AgWx,beryljct,423,05APR2020:19:30:00,53.6,13.04,52.2,51.9,52.2,52.5,51.9,44,45,43,0.584,31.0,31.3,30.8,15.63,13.9,206,7.5,19.6,0.00055,0.00066,49.6,45.9,22,0,.,.,11.18,0.00,0.00
15min,AgWx,beryljct,423,05APR2020:19:45:00,53.1,13.03,51.4,51.8,51.9,52.1,51.7,44,45,44,0.583,30.8,31.0,30.7,10.43,13.9,207,8.8,19.0,0.00055,0.00066,49.5,46.0,22,0,.,.,11.18,0.00,0.00
15min,AgWx,beryljct,423,05APR2020:20:00:00,52.7,13.03,51.9,51.8,51.7,51.9,51.5,45,45,45,0.587,30.9,31.1,30.8,13.83,12.3,206,8.5,17.7,0.00050,0.00061,49.4,46.0,22,0,.,.,11.19,0.01,0.00
15min,AgWx,beryljct,423,05APR2020:20:15:00,52.4,13.01,51.7,51.8,51.7,51.9,51.5,45,45,44,0.582,31.0,31.2,30.8,9.97,13.2,206,9.4,20.5,0.00052,0.00063,49.2,46.1,22,0,.,.,11.18,0.00,0.00
15min,AgWx,beryljct,423,05APR2020:20:30:00,52.2,13.01,51.7,51.3,51.4,51.8,51.1,45,45,44,0.578,30.7,30.9,30.5,10.19,11.2,212,8.5,18.7,0.00047,0.00058,49.1,46.1,22,0,.,.,11.19,0.00,0.00
15min,AgWx,beryljct,423,05APR2020:20:45:00,51.8,13,51.1,50.8,51.0,51.3,50.4,46,47,45,0.585,30.8,31.1,30.6,9.49,9.0,204,10,14.0,0.00039,0.00049,49.0,46.2,22,0,.,.,11.19,0.00,0.00
15min,AgWx,beryljct,423,05APR2020:21:00:00,51.3,12.99,49.2,49.0,49.7,50.8,48.8,49,51,46,0.590,31.2,31.4,30.9,3.069,4.6,165,18,10.7,0.00015,0.00023,48.9,46.2,22,0,.,.,11.19,0.00,0.00
15min,AgWx,beryljct,423,05APR2020:21:15:00,50.5,12.98,49.0,48.0,48.3,49.0,47.6,52,53,50,0.598,31.3,31.6,31.1,3.946,2.4,123,16,4.3,-0.00004,-0.00003,48.7,46.2,22,0,.,.,11.19,0.00,0.00
15min,AgWx,beryljct,423,05APR2020:21:30:00,49.3,12.98,47.6,46.7,47.5,48.5,46.1,53,56,51,0.602,31.3,31.7,31.0,4.889,2.9,129,19,5.7,0.00000,0.00003,48.6,46.2,22,0,.,.,11.19,0.01,0.00
15min,AgWx,beryljct,423,05APR2020:21:45:00,48.3,12.96,46.6,46.9,47.1,47.5,46.8,54,55,53,0.590,31.4,31.7,31.1,1.6,4.4,146,12,6.8,0.00010,0.00015,48.5,46.3,22,0,.,.,11.19,0.00,0.00
15min,AgWx,beryljct,423,05APR2020:22:00:00,47.3,12.96,45.0,45.5,46.1,47.0,45.3,55,56,53,0.569,30.8,31.3,29.7,0.263,1.3,274,64,2.8,-0.00015,-0.00020,48.3,46.3,22,0,.,.,11.19,0.00,0.00
15min,AgWx,beryljct,423,05APR2020:22:15:00,46.2,12.94,45.4,44.7,43.8,45.5,42.3,59,61,55,0.590,30.2,31.3,28.8,3.288,1.6,10,33,3.3,-0.00013,-0.00016,48.2,46.3,22,0,.,.,11.19,0.00,0.00
15min,AgWx,beryljct,423,05APR2020:22:30:00,44.9,12.95,44.5,43.9,42.9,45.0,40.8,60,63,57,0.571,30.0,31.1,28.6,1.359,1.5,302,72,4.3,-0.00013,-0.00017,48.1,46.3,22,0,.,.,11.19,0.00,0.00
15min,AgWx,bigpiney,439,05APR2020:00:00:00,33.0,12.63,31.0,31.1,31.3,31.5,31.1,61,65,58,0.380,19.3,20.5,18.6,5.042,3.2,334,31,5.1,-0.00003,-0.00002,31.6,31.8,15,0,0,0.0,6.05,0.00,0.00
15min,AgWx,bigpiney,439,05APR2020:00:15:00,33.1,12.62,30.3,30.1,30.2,31.0,29.9,70,73,65,0.395,21.7,22.3,20.6,4.604,4.1,356,9.0,5.7,-0.00002,-0.00001,31.6,31.8,15,0,0,0.0,6.05,0.00,0.00
15min,AgWx,bigpiney,439,05APR2020:00:30:00,32.9,12.6,29.5,29.1,29.4,30.1,29.1,72,74,70,0.394,21.5,21.9,21.2,5.174,4.8,306,17,5.7,-0.00001,0.00000,31.6,31.8,15,0,0,0.0,6.05,0.00,0.00
15min,AgWx,bigpiney,439,05APR2020:00:45:00,32.7,12.6,30.4,30.0,29.6,30.0,29.1,70,73,65,0.368,21.1,21.8,19.8,4.845,4.7,292,8.2,6.1,-0.00001,0.00001,31.6,31.9,15,0,0,0.0,6.05,0.00,0.00
15min,AgWx,bigpiney,439,05APR2020:01:00:00,32.5,12.59,29.7,30.0,30.1,30.4,30.0,64,65,62,0.362,19.3,19.8,18.9,1.973,3.9,299,10,4.8,-0.00000,0.00001,31.6,31.8,15,0,0,0.0,6.05,0.00,0.00
15min,AgWx,bigpiney,439,05APR2020:01:15:00,32.4,12.59,30.6,30.3,29.8,30.5,29.2,65,69,62,0.363,19.4,20.2,18.8,2.411,2.3,233,28,4.0,-0.00007,-0.00008,31.6,31.8,15,0,0,0.0,6.05,0.00,0.00
15min,AgWx,bigpiney,439,05APR2020:01:30:00,32.4,12.58,30.6,30.0,30.1,30.4,29.7,63,65,61,0.353,19.1,19.7,18.4,3.42,1.3,298,34,3.4,-0.00013,-0.00017,31.6,31.8,15,0,0,0.0,6.05,0.00,0.00
15min,AgWx,bigpiney,439,05APR2020:01:45:00,32.2,12.58,29.5,29.0,29.8,30.3,28.8,64,70,62,0.367,19.1,20.3,18.6,1.359,3.3,269,24,4.9,-0.00003,-0.00002,31.6,31.8,15,0,0,0.0,6.05,0.00,0.00
15min,AgWx,bigpiney,439,05APR2020:02:00:00,32.0,12.57,29.8,29.4,29.6,30.0,29.0,63,68,61,0.352,18.4,19.7,17.8,3.025,1.9,267,13,3.1,-0.00009,-0.00011,31.6,31.9,15,0,0,0.0,6.05,0.00,0.00
15min,AgWx,bigpiney,439,05APR2020:02:15:00,31.9,12.55,29.1,29.1,29.5,30.2,28.4,66,71,61,0.375,19.3,20.4,18.3,3.31,3.2,221,41,5.3,-0.00004,-0.00003,31.6,31.9,15,0,0,0.0,6.05,0.00,0.00
15min,AgWx,bigpiney,439,05APR2020:02:30:00,31.9,12.54,28.6,28.2,28.4,29.1,28.0,74,75,69,0.391,21.0,21.5,20.3,0.022,1.4,193,52,3.4,-0.00013,-0.00017,31.6,31.8,15,0,0,0.0,6.05,0.00,0.00
15min,AgWx,bigpiney,439,05APR2020:02:45:00,31.8,12.54,28.4,28.4,28.4,28.8,28.1,74,75,72,0.383,21.1,21.4,20.6,1.776,1.8,278,41,2.8,-0.00012,-0.00015,31.6,31.8,15,0,0,0.0,6.05,0.00,0.00
15min,AgWx,bigpiney,439,05APR2020:03:00:00,31.4,12.53,26.0,25.9,26.7,28.4,25.7,80,82,73,0.392,21.2,22.0,20.7,3.069,3.5,210,5.4,4.9,-0.00006,-0.00007,31.6,31.8,15,0,0,0.0,6.05,0.00,0.00
15min,AgWx,bigpiney,439,05APR2020:03:15:00,30.8,12.52,27.2,26.7,26.2,26.8,25.8,80,82,76,0.390,20.9,21.3,20.3,5.086,3.9,208,12,6.3,-0.00005,-0.00005,31.6,31.8,15,0,0,0.0,6.05,0.00,0.00
15min,AgWx,bigpiney,439,05APR2020:03:30:00,30.5,12.51,28.9,28.3,27.6,28.3,26.7,77,79,75,0.396,21.4,21.8,21.0,5.152,4.8,244,11,7.3,-0.00003,-0.00002,31.6,31.8,15,0,0,0.0,6.05,0.00,0.00
15min,AgWx,bigpiney,439,05APR2020:03:45:00,30.6,12.5,29.4,29.1,28.9,29.2,28.3,71,75,70,0.384,20.8,21.5,20.5,2.17,3.2,256,9.6,5.5,-0.00005,-0.00005,31.6,31.9,15,0,0,0.0,6.05,0.00,0.00
15min,AgWx,bigpiney,439,05APR2020:04:00:00,30.8,12.49,28.7,29.0,29.3,29.5,29.0,69,71,66,0.370,20.3,20.9,19.4,4.669,1.5,232,8.0,4.7,-0.00012,-0.00016,31.6,31.8,15,0,0,0.0,6.05,0.00,0.00
15min,AgWx,bigpiney,439,05APR2020:04:15:00,30.5,12.48,27.8,27.0,27.7,30.0,26.5,68,72,59,0.339,18.5,19.8,17.4,3.595,4.2,245,7.1,5.7,-0.00001,0.00000,31.6,31.8,15,0,0,0.0,6.05,0.00,0.00
15min,AgWx,bigpiney,439,05APR2020:04:30:00,29.9,12.47,26.9,26.5,26.4,27.7,25.8,70,73,65,0.353,18.1,19.0,17.1,3.88,4.6,249,5.8,6.0,-0.00001,0.00000,31.6,31.8,15,0,0,0.0,6.05,0.00,0.00
15min,AgWx,bigpiney,439,05APR2020:04:45:00,29.4,12.45,26.6,26.0,26.5,27.0,26.0,71,73,69,0.346,18.6,19.2,17.7,2.981,3.9,244,5.8,6.1,-0.00003,-0.00002,31.6,31.8,15,0,0,0.0,6.05,0.00,0.00
15min,AgWx,bigpiney,439,05APR2020:05:00:00,28.9,12.45,25.4,24.6,25.4,26.3,24.4,74,77,71,0.349,18.3,18.6,18.0,3.836,4.4,236,6.7,6.8,-0.00002,-0.00002,31.6,31.8,15,0,0,0.0,6.05,0.00,0.00
15min,AgWx,bigpiney,439,05APR2020:05:15:00,28.3,12.42,25.1,24.7,24.5,24.8,24.1,76,77,73,0.333,17.9,18.7,17.4,2.938,3.4,231,8.4,4.3,-0.00005,-0.00005,31.6,31.8,15,0,0,0.0,6.05,0.00,0.00
15min,AgWx,bigpiney,439,05APR2020:05:30:00,27.6,12.41,22.2,21.9,23.5,24.7,21.9,78,83,73,0.334,17.6,18.6,17.0,0,3.1,79,69,4.7,-0.00006,-0.00007,31.6,31.8,15,0,0,0.0,6.05,0.00,0.00
15min,AgWx,bigpiney,439,05APR2020:05:45:00,27.0,12.39,23.8,23.4,23.1,23.6,21.9,83,85,81,0.351,18.7,19.4,17.6,1.776,1.0,102,26,2.5,-0.00015,-0.00020,31.6,31.8,15,0,0,0.0,6.05,0.00,0.00
15min,AgWx,bigpiney,439,05APR2020:06:00:00,26.4,12.39,22.4,22.1,23.0,23.5,22.1,82,85,80,0.344,18.3,18.8,17.6,3.617,3.0,301,46,6.0,-0.00007,-0.00008,31.6,31.8,15,4,0,0.0,6.05,0.00,0.00
15min,AgWx,bigpiney,439,05APR2020:06:15:00,26.0,12.41,24.9,24.6,23.5,24.7,22.1,83,85,80,0.360,19.0,19.4,18.3,3.31,3.3,313,9.7,4.5,-0.00019,-0.00015,31.6,31.8,15,17,0,0.0,6.05,0.00,0.00
15min,AgWx,bigpiney,439,05APR2020:06:30:00,26.1,12.45,27.0,26.4,25.3,26.4,24.5,81,82,80,0.391,20.2,21.2,19.3,2.433,2.6,341,21,3.6,-0.00009,-0.00004,31.6,31.8,15,55,0,0.0,6.05,0.00,0.00
15min,AgWx,bigpiney,439,05APR2020:06:45:00,27.0,12.42,28.3,27.9,27.2,28.0,26.4,79,82,77,0.400,21.5,22.0,20.9,1.951,2.6,4.1,15,4.1,0.00009,0.00015,31.6,31.8,15,47,0,0.0,6.05,0.00,0.00
15min,AgWx,bigpiney,439,05APR2020:07:00:00,28.1,12.52,28.8,28.5,28.2,28.6,27.9,76,77,75,0.399,21.6,22.0,21.3,1.14,1.3,26,16,2.9,0.00018,0.00022,31.6,31.8,15,53,0,0.0,6.05,0.00,0.00
15min,AgWx,bigpiney,439,05APR2020:07:15:00,28.9,12.87,31.0,30.3,29.3,30.3,28.5,72,76,66,0.393,21.5,22.6,20.1,0.482,0.3,45,44,1.4,0.00031,0.00034,31.6,31.8,15,142,0,0.0,6.05,0.00,0.00
15min,AgWx,bigpiney,439,05APR2020:07:30:00,30.0,13.13,31.8,31.6,31.1,31.6,30.4,65,69,63,0.385,20.9,21.6,20.3,1.754,1.0,150,73,3.2,0.00054,0.00061,31.6,31.8,15,189,0,0.0,6.05,0.00,0.00
15min,AgWx,bigpiney,439,05APR2020:07:45:00,31.3,12.91,32.6,32.3,32.0,32.4,31.5,64,65,62,0.388,21.0,21.9,20.2,1.951,1.2,267,75,2.7,0.00046,0.00054,31.6,31.8,15,103,0,0.0,6.05,0.00,0.00
15min,AgWx,bigpiney,439,05APR2020:08:00:00,32.4,12.86,33.4,32.8,32.6,32.8,32.3,63,65,60,0.383,21.4,22.1,20.3,3.529,2.3,170,35,4.2,0.00052,0.00065,31.6,31.8,15,96,0,0.0,6.05,0.00,0.00
15min,AgWx,bigpiney,439,05APR2020:08:15:00,33.5,13.23,34.1,33.7,33.3,33.7,32.9,61,62,58,0.392,21.1,22.1,20.3,4.757,5.0,145,12,7.7,0.00076,0.00101,31.6,31.8,15,141,0,0.0,6.05,0.00,0.00
15min,AgWx,bigpiney,439,05APR2020:08:30:00,34.6,13.37,33.9,33.8,33.9,34.3,33.5,62,65,60,0.422,22.3,23.2,21.3,2.981,4.2,99,16,6.0,0.00094,0.00117,31.6,31.8,15,206,0,0.0,6.05,0.00,0.00
15min,AgWx,bigpiney,439,05APR2020:08:45:00,35.3,14.43,33.7,33.3,33.8,34.2,33.2,63,66,60,0.421,22.6,23.6,21.8,7.212,4.4,107,13,8.2,0.00093,0.00115,31.7,31.7,15,198,0,0.0,6.05,0.00,0.00
15min,AgWx,bigpiney,439,05APR2020:09:00:00,36.1,13.65,34.1,33.8,33.5,34.0,33.1,63,66,61,0.403,22.3,23.4,21.7,5.919,4.7,115,18,7.5,0.00110,0.00135,31.7,31.8,15,248,0,0.0,6.05,0.00,0.00
15min,AgWx,bigpiney,439,05APR2020:09:15:00,36.9,14.75,36.8,35.8,34.9,35.8,33.8,61,63,59,0.441,22.8,24.1,21.7,3.661,6.0,93,13,9.6,0.00158,0.00192,31.7,31.8,15,392,0,0.0,6.05,0.00,0.00
15min,AgWx,bigpiney,439,05APR2020:09:30:00,38.0,14.7,36.7,36.6,36.0,36.7,35.5,61,63,58,0.428,23.6,24.8,22.7,5.985,5.8,101,9.6,7.8,0.00149,0.00182,31.6,31.8,15,337,0,0.0,6.05,0.00,0.00